Date,TemperatureHighF,TemperatureAvgF,TemperatureLowF,DewpointHighF,DewpointAvgF,DewpointLowF,HumidityHigh,HumidityAvg,HumidityLow,PressureMaxIn,PressureMinIn,WindSpeedMaxMPH,WindSpeedAvgMPH,GustSpeedMaxMPH,PrecipitationSumIn
2013-1-1,49.9,48.6,46.2,49.4,41.7,26.7,99,80,44,30.07,29.87,3,0,4,0.35
2013-1-2,51.6,48.5,44.6,50.5,45.4,40.4,99,89,72,30.08,29.84,7,1,9,0.08
2013-1-3,44.5,40.6,30.9,40.9,37.0,28.9,94,87,79,30.22,30.03,6,2,9,0.00
2013-1-4,51.6,36.8,24.7,31.3,23.2,16.6,95,64,27,30.29,30.16,4,1,8,0.00
2013-1-5,47.4,36.8,23.8,32.8,23.3,19.0,84,60,34,30.34,30.18,3,0,6,0.00
2013-1-6,55.4,45.0,38.0,41.4,36.5,28.4,87,73,58,30.17,29.98,5,1,9,0.02
2013-1-7,51.6,39.1,27.6,30.9,27.9,25.3,92,67,38,30.36,30.14,5,1,7,0.00
2013-1-8,51.6,39.6,26.6,40.0,32.6,23.9,91,77,56,30.40,30.29,3,0,4,0.00
2013-1-9,64.7,52.9,42.1,52.2,45.9,38.7,90,78,60,30.38,30.29,2,0,5,0.00
2013-1-10,68.3,56.8,45.7,54.9,49.1,44.7,98,78,53,30.42,30.27,4,0,6,0.00
2013-1-11,55.1,50.2,47.4,51.6,49.3,46.9,100,97,82,30.29,30.08,5,2,5,0.13
2013-1-12,72.0,60.1,48.6,65.3,56.7,48.3,100,90,70,30.09,30.00,4,1,6,0.00
2013-1-13,71.8,63.4,58.6,61.3,58.9,56.9,94,86,66,30.05,29.96,4,1,8,0.00
2013-1-14,67.1,63.3,59.6,65.6,61.8,58.2,98,95,87,30.04,29.96,3,1,7,0.17
2013-1-15,63.9,50.6,42.3,61.5,49.7,41.8,98,97,90,30.08,29.98,9,5,13,0.08
2013-1-16,50.5,46.3,42.3,50.2,45.8,41.8,99,98,97,29.98,29.90,6,2,9,0.18
2013-1-17,52.2,46.6,34.0,51.9,45.6,32.7,99,96,89,30.13,29.68,17,6,28,1.70
2013-1-18,49.6,38.2,30.1,34.0,27.9,20.9,97,70,33,30.43,30.12,5,1,7,0.00
2013-1-19,53.5,39.6,25.4,33.2,26.1,21.6,95,63,29,30.43,30.12,4,1,5,0.01
2013-1-20,64.2,47.9,32.1,36.4,28.8,21.4,81,50,29,30.11,29.95,4,1,6,0.00
2013-1-21,59.9,43.4,27.8,33.6,24.3,12.8,91,53,25,30.01,29.85,13,1,15,0.00
2013-1-22,41.3,35.4,26.4,15.6,5.9,-5.3,52,30,14,30.20,29.95,11,4,16,0.00
2013-1-23,46.8,34.1,21.0,26.8,16.3,3.8,78,50,27,30.29,30.01,3,1,9,0.00
2013-1-24,49.4,38.8,25.3,32.2,16.6,3.5,77,44,21,30.42,29.93,10,3,22,0.00
2013-1-25,26.7,24.8,21.0,23.2,14.3,3.3,91,66,38,30.44,30.07,4,0,9,0.03
2013-1-26,48.3,32.9,23.8,37.2,28.1,21.6,96,84,49,30.29,30.06,2,0,5,0.02
2013-1-27,45.2,36.2,26.6,29.5,26.6,23.6,93,70,47,30.49,30.29,5,1,10,0.00
2013-1-28,50.5,42.6,35.3,46.1,34.5,27.5,90,73,61,30.42,30.19,5,1,12,0.00
2013-1-29,47.3,46.3,45.4,44.8,44.1,43.5,93,92,91,30.19,30.17,1,0,4,0.00
2013-1-30,72.3,64.4,49.1,62.6,58.8,43.8,96,82,62,29.93,29.36,11,6,23,0.93
2013-1-31,50.4,43.7,36.9,44.0,26.1,15.6,84,52,25,29.96,29.47,8,3,16,0.01
2013-2-1,40.9,36.0,25.4,28.7,12.1,-0.8,63,39,19,30.30,29.86,13,4,28,0.00
2013-2-2,44.9,33.0,19.9,34.5,16.2,6.8,83,54,23,30.32,30.00,5,2,12,0.00
2013-2-3,53.9,42.8,34.0,34.9,27.0,17.5,89,57,27,29.98,29.79,12,3,23,0.00
2013-2-4,50.7,38.9,27.0,26.8,22.3,18.6,78,53,30,30.07,29.94,3,1,8,0.00
2013-2-5,64.0,49.6,36.3,43.2,34.8,27.0,83,59,36,29.94,29.81,4,1,12,0.00
2013-2-6,63.5,50.9,38.3,42.7,29.6,11.6,94,52,14,30.13,29.91,6,1,11,0.00
2013-2-7,49.4,41.5,39.3,38.6,32.7,22.4,93,73,35,30.18,29.93,11,6,19,0.62
2013-2-8,59.3,47.3,38.0,46.8,37.2,26.2,94,71,44,30.05,29.80,10,4,15,0.01
2013-2-9,58.6,44.2,30.1,26.5,22.2,15.5,76,46,19,30.25,30.04,7,1,12,0.00
2013-2-10,57.2,44.7,32.2,44.3,29.6,19.0,94,60,24,30.36,30.12,4,1,10,0.16
2013-2-11,56.9,50.8,44.1,56.3,49.8,42.5,99,96,92,30.10,29.88,4,0,9,0.11
2013-2-12,58.3,50.4,43.3,50.2,36.6,24.9,94,63,29,30.03,29.82,4,1,8,0.07
2013-2-13,48.9,44.7,39.5,45.7,41.6,31.5,99,89,64,29.87,29.59,7,1,14,0.04
2013-2-14,51.7,40.5,28.7,34.3,31.5,26.7,95,72,46,30.00,29.81,4,1,13,0.00
2013-2-15,61.2,45.4,27.6,38.7,31.1,26.1,96,64,28,30.03,29.85,7,1,12,0.00
2013-2-16,45.7,36.1,25.7,33.6,29.0,20.8,93,76,56,29.96,29.75,6,2,12,0.00
2013-2-17,41.5,31.6,19.7,21.0,12.1,5.7,84,49,23,30.20,29.96,10,3,23,0.04
2013-2-18,54.5,39.0,21.4,26.8,19.2,8.4,79,47,27,30.32,30.15,6,1,10,0.00
2013-2-19,52.6,42.1,35.6,43.0,32.3,12.5,96,71,28,30.15,29.81,7,2,14,0.18
2013-2-20,55.9,43.6,28.2,18.1,11.3,1.1,59,29,11,30.05,29.95,6,1,13,0.00
2013-2-21,57.8,42.8,25.6,37.5,17.5,5.4,80,39,20,30.17,30.01,3,0,7,0.01
2013-2-22,43.1,38.9,37.5,37.5,36.8,34.7,97,92,72,30.22,30.04,6,3,9,0.29
2013-2-23,44.6,40.3,36.9,42.8,39.1,36.1,97,95,91,30.07,29.78,6,2,9,0.31
2013-2-24,63.7,51.0,40.3,45.4,33.8,20.4,98,61,19,29.94,29.78,6,1,10,0.00
2013-2-25,45.8,41.6,37.9,27.9,25.9,23.9,62,54,45,30.09,29.93,9,4,12,0.00
2013-2-26,41.3,36.6,32.8,40.8,34.6,25.7,98,93,62,30.00,29.54,10,5,18,1.05
2013-2-27,56.5,46.8,36.9,41.0,35.6,31.8,98,68,45,29.74,29.59,5,2,10,0.00
2013-2-28,49.6,41.8,33.4,33.2,27.2,22.8,83,58,38,29.83,29.65,11,3,19,0.00
2013-3-1,49.1,38.4,26.4,29.8,26.3,22.5,88,63,42,29.88,29.80,7,1,10,0.00
2013-3-2,43.5,38.1,31.2,37.8,30.8,21.5,92,76,57,29.88,29.77,8,1,14,0.10
2013-3-3,45.4,33.5,23.2,22.1,18.2,14.4,86,56,31,29.96,29.84,9,2,19,0.00
2013-3-4,55.9,39.5,23.5,21.7,15.3,11.4,68,41,17,30.09,29.95,4,1,7,0.00
2013-3-5,51.9,45.3,40.5,45.3,36.2,21.0,96,72,39,30.00,29.55,10,1,17,0.48
2013-3-6,48.5,39.8,32.4,42.1,24.3,19.7,96,55,36,30.06,29.56,17,7,22,0.01
2013-3-7,57.0,39.9,25.4,28.2,24.7,22.0,89,59,27,30.19,30.05,11,3,13,0.00
2013-3-8,58.0,41.8,25.3,26.0,21.3,17.0,84,49,21,30.25,30.12,8,3,13,0.00
2013-3-9,62.7,46.6,27.8,33.4,27.2,22.5,82,50,25,30.29,30.15,4,1,10,0.00
2013-3-10,66.1,51.6,34.7,37.9,33.9,31.2,88,55,28,30.22,30.09,5,1,9,0.00
2013-3-11,68.1,55.0,42.2,54.2,43.1,29.1,93,65,49,30.11,29.76,8,2,16,0.11
2013-3-12,67.4,58.9,47.0,57.9,45.7,26.7,97,67,26,29.91,29.66,8,3,13,0.32
2013-3-13,56.9,44.9,35.3,30.9,24.2,15.6,76,47,25,30.09,29.90,14,4,19,0.00
2013-3-14,53.2,40.3,30.1,21.6,15.5,10.0,56,38,20,30.23,30.09,8,2,13,0.00
2013-3-15,68.6,49.4,28.4,39.9,26.9,14.1,74,44,27,30.13,29.83,5,2,14,0.00
2013-3-16,77.2,65.5,56.3,44.5,41.5,38.0,57,43,27,29.84,29.65,7,3,18,0.00
2013-3-17,77.6,62.3,46.7,50.0,42.7,38.8,74,51,28,29.99,29.76,10,3,19,0.00
2013-3-18,46.2,41.9,40.1,41.5,39.5,37.8,97,91,75,30.04,29.79,9,5,15,0.36
2013-3-19,64.7,51.3,40.6,46.5,29.9,13.2,99,56,15,29.98,29.78,11,5,19,0.00
2013-3-20,57.6,48.8,42.1,24.6,13.7,8.2,41,25,16,30.03,29.72,6,2,14,0.00
2013-3-21,46.1,38.3,29.8,27.2,12.1,5.8,57,35,20,29.90,29.73,12,5,19,0.00
2013-3-22,52.3,38.1,24.8,25.2,16.2,11.1,70,43,22,30.02,29.89,4,1,10,0.00
2013-3-23,52.6,43.9,38.3,42.4,36.0,24.7,92,75,46,29.98,29.83,4,0,6,0.02
2013-3-24,43.2,41.7,39.3,41.9,39.5,37.3,95,92,85,29.86,29.49,11,4,18,0.68
2013-3-25,47.6,41.2,36.5,38.6,27.5,17.0,96,63,32,29.84,29.49,12,3,18,0.01
2013-3-26,47.9,38.5,27.3,25.0,21.7,19.7,78,52,34,30.13,29.83,12,4,16,0.00
2013-3-27,54.5,40.6,27.8,25.4,21.5,19.3,77,49,27,30.20,30.10,9,2,14,0.00
2013-3-28,57.6,42.8,26.0,27.3,20.9,16.4,82,46,21,30.25,30.11,10,2,15,0.00
2013-3-29,42.6,42.6,42.6,22.2,22.2,22.2,44,44,44,30.22,30.22,0,0,0,0.00
2013-3-30,65.3,53.1,44.5,47.0,42.8,38.8,95,71,38,30.15,29.96,7,1,12,0.10
2013-3-31,70.8,58.2,49.6,57.1,50.9,43.3,97,79,50,29.96,29.73,5,1,10,0.27
2013-4-1,71.6,61.8,53.1,55.2,43.9,32.3,96,58,24,29.87,29.75,10,3,21,0.02
2013-4-2,66.4,56.3,42.9,35.8,29.9,21.7,67,38,22,30.07,29.87,10,3,18,0.00
2013-4-3,60.1,52.6,44.8,29.5,21.3,13.4,41,29,22,30.19,30.04,10,3,14,0.00
2013-4-4,51.6,42.0,36.5,38.3,30.7,19.7,94,68,35,30.17,29.91,12,6,18,0.66
2013-4-5,66.3,50.2,37.2,44.9,39.1,35.0,96,70,39,29.97,29.82,7,2,10,0.00
2013-4-6,69.9,54.7,36.9,40.9,34.6,28.8,91,52,22,30.14,29.98,5,1,9,0.00
2013-4-7,71.6,58.9,42.2,47.7,43.4,37.7,89,59,37,30.16,30.00,5,1,13,0.00
2013-4-8,78.5,65.4,50.5,55.5,50.9,45.8,93,62,35,30.08,29.96,6,2,12,0.00
2013-4-9,82.6,69.6,53.1,58.6,53.7,49.9,90,60,35,30.10,29.99,5,1,10,0.00
2013-4-10,84.9,72.5,60.2,59.6,56.2,54.0,87,59,35,30.01,29.85,5,1,13,0.00
2013-4-11,81.1,69.2,59.3,66.8,59.8,55.6,95,74,49,29.88,29.64,5,2,11,0.05
2013-4-12,80.5,69.6,59.3,66.8,53.8,37.0,97,64,22,29.72,29.55,6,2,17,0.81
2013-4-13,77.7,62.3,41.9,46.8,36.3,27.1,91,44,16,29.93,29.73,6,1,17,0.00
2013-4-14,74.6,60.1,43.2,51.8,43.1,34.8,88,57,28,30.00,29.90,4,1,11,0.00
2013-4-15,68.9,60.5,56.2,59.2,56.2,53.8,96,86,70,30.11,29.89,6,3,12,0.03
2013-4-16,78.3,66.2,57.2,61.5,57.2,54.9,93,75,47,30.21,30.09,3,0,8,0.00
2013-4-17,80.3,69.6,56.5,63.8,59.7,54.2,94,72,47,30.16,30.02,8,1,16,0.00
2013-4-18,78.8,68.9,60.9,62.1,59.8,56.4,93,74,48,30.06,29.88,6,1,13,0.00
2013-4-19,76.1,65.7,53.1,66.6,60.9,50.3,94,85,64,29.89,29.65,7,2,19,0.33
2013-4-20,64.5,52.9,40.1,50.2,34.2,25.0,91,53,26,30.18,29.83,10,2,17,0.01
2013-4-21,62.1,51.7,39.5,41.7,36.8,31.3,86,58,41,30.35,30.18,10,3,20,0.00
2013-4-22,62.3,52.0,42.5,39.3,34.7,28.7,83,54,29,30.34,30.14,10,3,19,0.00
2013-4-23,72.1,55.1,39.9,50.0,42.4,33.8,85,64,38,30.19,30.02,7,1,14,0.00
2013-4-24,72.8,61.4,49.1,58.0,53.1,47.4,96,76,52,30.06,29.92,4,1,16,0.00
2013-4-25,72.7,60.8,51.4,57.5,42.7,31.6,92,55,24,30.19,29.97,8,2,13,0.00
2013-4-26,71.8,57.8,39.6,46.5,36.4,29.0,84,48,24,30.35,30.19,6,1,15,0.00
2013-4-27,63.2,56.2,53.3,55.7,51.0,41.8,96,84,53,30.27,30.16,3,0,8,0.53
2013-4-28,55.9,54.5,53.6,55.1,53.7,52.8,98,97,96,30.17,29.97,6,1,10,1.46
2013-4-29,73.7,61.8,55.4,61.9,57.9,54.8,99,88,61,29.98,29.85,2,0,6,0.06
2013-4-30,73.7,62.8,53.9,62.5,57.7,53.1,99,85,57,30.09,29.89,7,2,14,0.00
2013-5-1,64.5,59.6,53.2,56.3,54.5,51.8,97,84,70,30.20,30.09,10,4,17,0.00
2013-5-2,62.3,58.7,56.5,57.5,55.8,54.4,97,90,80,30.21,30.14,7,4,13,0.06
2013-5-3,65.3,59.9,55.9,55.7,52.7,50.2,93,78,63,30.15,30.01,8,3,15,0.01
2013-5-4,59.6,55.0,50.2,51.8,46.8,40.8,86,74,60,30.03,29.88,8,4,16,0.00
2013-5-5,59.3,53.4,50.7,58.2,51.9,49.0,97,95,85,29.94,29.73,9,5,19,2.73
2013-5-6,67.6,59.8,51.6,59.3,52.8,45.4,98,80,46,29.82,29.73,5,0,10,0.31
2013-5-7,70.4,56.6,43.8,54.8,49.2,42.7,97,79,43,29.87,29.78,6,1,9,0.04
2013-5-8,76.0,63.3,50.4,60.2,55.1,49.6,98,77,48,29.93,29.84,2,0,8,0.00
2013-5-9,81.8,66.9,51.6,59.9,54.5,48.4,97,69,34,30.00,29.91,3,0,7,0.00
2013-5-10,81.8,67.6,54.1,63.9,59.1,53.0,97,77,45,29.98,29.86,5,0,14,0.02
2013-5-11,79.4,69.7,61.6,63.0,61.0,56.2,92,75,53,29.87,29.71,5,1,11,0.02
2013-5-12,72.8,63.6,51.7,59.8,45.2,21.6,91,56,15,29.96,29.75,8,3,16,0.00
2013-5-13,69.4,55.9,40.3,41.3,34.3,23.3,89,50,19,30.10,29.96,7,2,13,0.00
2013-5-14,72.7,59.3,41.5,47.6,39.1,31.6,81,49,30,30.18,30.00,4,1,10,0.00
2013-5-15,88.0,72.4,53.6,62.5,56.2,47.6,89,59,38,30.00,29.84,3,1,8,0.00
2013-5-16,81.8,71.6,59.2,64.3,58.9,53.7,86,66,39,29.93,29.85,3,0,8,0.00
2013-5-17,84.7,72.3,59.2,66.3,61.3,57.2,95,71,42,29.99,29.91,2,0,7,0.00
2013-5-18,70.3,67.3,63.5,67.1,64.2,61.0,96,90,78,30.05,29.96,1,0,6,0.32
2013-5-19,76.7,69.5,65.5,68.4,65.9,64.0,97,89,73,30.02,29.92,2,0,7,0.02
2013-5-20,83.8,72.2,66.3,69.8,66.1,59.4,98,83,48,30.04,29.90,3,0,4,0.19
2013-5-21,88.0,73.1,64.5,70.8,66.4,62.7,96,81,49,29.96,29.83,4,0,11,0.00
2013-5-22,83.2,71.7,64.2,69.4,65.0,59.7,96,81,55,29.91,29.77,7,1,10,0.47
2013-5-23,79.6,67.9,63.1,68.8,65.0,62.5,99,91,64,29.89,29.72,5,0,11,0.51
2013-5-24,71.8,64.7,53.6,62.6,48.7,37.1,95,61,30,30.11,29.79,13,4,23,0.00
2013-5-25,77.4,61.3,41.6,51.4,43.6,36.1,92,56,28,30.23,30.06,2,0,10,0.00
2013-5-26,76.0,63.3,55.0,55.1,49.2,42.4,83,62,39,30.20,30.08,2,0,7,0.00
2013-5-27,82.0,67.5,51.7,62.5,55.5,50.3,96,69,41,30.18,30.04,4,0,7,0.00
2013-5-28,82.2,72.1,62.0,65.0,62.0,58.5,93,72,49,30.14,30.05,3,1,6,0.00
2013-5-29,83.6,72.8,59.8,63.6,60.9,57.8,94,68,46,30.15,30.06,2,0,5,0.00
2013-5-30,83.6,72.5,61.0,65.7,62.4,59.1,96,73,45,30.18,30.06,2,0,5,0.00
2013-5-31,84.9,74.2,65.5,67.9,64.6,62.4,93,74,47,30.14,30.00,3,1,5,0.00
2013-6-1,84.9,75.6,67.9,67.0,65.4,62.8,92,72,48,30.04,29.91,4,1,9,0.00
2013-6-2,77.9,72.3,66.8,72.7,67.4,63.5,96,85,73,29.95,29.81,4,0,7,0.35
2013-6-3,81.8,72.4,66.1,70.6,67.9,65.5,98,87,61,29.86,29.75,3,0,4,0.13
2013-6-4,82.6,73.4,65.0,67.5,65.6,62.6,97,78,54,29.96,29.85,5,2,9,0.48
2013-6-5,79.2,71.2,66.8,70.2,67.1,64.5,97,87,71,30.00,29.87,4,1,7,0.32
2013-6-6,76.7,71.8,68.8,73.9,70.1,67.6,98,94,85,29.89,29.70,4,0,18,0.34
2013-6-7,82.4,71.7,67.4,71.9,67.9,63.3,98,88,67,29.74,29.56,5,1,8,0.14
2013-6-8,83.4,73.4,66.4,68.8,66.7,64.2,97,81,56,29.99,29.73,2,0,8,0.00
2013-6-9,84.3,73.1,66.3,71.3,68.6,65.1,97,87,61,30.05,29.95,3,0,5,0.26
2013-6-10,79.9,72.2,67.6,72.3,68.9,66.0,98,90,71,29.98,29.81,4,1,11,0.17
2013-6-11,88.0,76.8,67.1,71.2,66.0,60.5,97,73,41,29.90,29.83,6,1,8,0.00
2013-6-12,90.1,77.5,64.0,75.7,69.9,62.8,97,79,55,29.91,29.79,2,0,3,0.00
2013-6-13,91.6,79.5,69.3,73.8,70.2,64.2,93,75,47,29.79,29.56,4,1,11,0.03
2013-6-14,83.0,73.4,62.3,64.4,56.2,50.7,83,57,34,29.93,29.68,9,3,17,0.00
2013-6-15,84.5,71.4,57.2,63.4,59.4,55.2,94,68,42,30.06,29.94,2,0,6,0.00
2013-6-16,85.3,75.1,65.0,68.2,64.3,60.7,90,71,48,30.05,29.91,2,0,7,0.00
2013-6-17,83.2,74.8,69.6,72.5,68.9,66.1,96,83,67,29.94,29.84,3,0,6,0.18
2013-6-18,82.4,73.3,68.4,73.0,70.2,67.2,98,91,69,29.86,29.69,4,0,9,0.24
2013-6-19,82.6,74.2,68.3,69.5,66.7,62.6,98,79,53,30.00,29.81,5,1,8,0.00
2013-6-20,82.2,72.7,65.0,67.7,65.0,62.8,96,78,53,30.13,30.00,3,1,8,0.00
2013-6-21,83.6,72.6,62.1,65.1,62.2,60.0,96,72,47,30.18,30.07,5,1,9,0.00
2013-6-22,86.3,73.0,60.2,67.7,63.0,58.5,95,73,44,30.13,30.01,4,1,8,0.00
2013-6-23,86.5,74.7,65.0,71.1,67.7,63.7,97,80,54,30.11,30.01,5,0,8,0.00
2013-6-24,85.7,76.0,68.1,74.2,70.2,67.2,98,83,59,30.11,30.00,4,1,13,0.01
2013-6-25,89.3,76.2,67.1,73.0,69.4,63.7,98,82,51,30.04,29.91,14,0,39,1.16
2013-6-26,88.8,76.7,67.9,76.2,71.3,67.3,99,85,56,29.95,29.81,1,0,4,0.00
2013-6-27,87.8,79.1,73.2,76.2,72.3,69.4,95,81,64,29.84,29.62,4,0,9,0.00
2013-6-28,92.7,80.0,68.4,73.9,70.6,67.2,96,75,47,29.68,29.47,4,0,11,0.00
2013-6-29,87.0,77.2,70.3,71.8,69.0,65.7,96,77,51,29.61,29.52,4,1,8,0.00
2013-6-30,87.0,74.2,68.6,73.3,68.5,66.5,96,83,57,29.73,29.60,3,0,8,0.03
2013-7-1,81.4,74.0,68.1,70.8,68.9,66.9,98,85,65,29.86,29.72,3,1,9,0.01
2013-7-2,78.3,73.9,71.6,72.2,70.9,69.8,97,91,77,30.04,29.86,5,1,11,0.29
2013-7-3,78.8,73.8,67.9,73.9,71.5,66.2,98,93,78,30.11,30.02,4,0,9,1.78
2013-7-4,84.0,73.8,68.4,75.6,70.8,67.8,99,91,65,30.13,30.04,6,1,14,1.54
2013-7-5,81.1,74.1,70.1,76.1,72.5,69.3,99,95,76,30.14,30.08,4,0,7,1.56
2013-7-6,84.9,76.5,71.6,73.7,71.9,69.9,99,87,63,30.14,30.00,4,1,11,0.17
2013-7-7,83.6,76.9,73.0,76.0,73.0,71.9,98,88,68,30.08,29.96,3,0,9,0.15
2013-7-8,84.5,76.8,71.5,75.5,72.7,70.4,99,88,66,30.09,30.00,5,0,11,0.09
2013-7-9,87.4,77.7,69.9,76.6,72.4,69.0,97,84,66,30.06,29.94,4,0,5,0.00
2013-7-10,84.3,74.9,69.1,74.9,71.3,68.2,98,89,71,30.03,29.85,5,0,12,0.70
2013-7-11,77.9,73.5,70.3,76.2,72.7,69.4,99,97,90,29.87,29.78,3,0,6,0.80
2013-7-12,81.6,74.4,69.3,73.3,70.5,68.8,99,89,68,29.91,29.79,6,1,10,0.22
2013-7-13,78.8,73.3,69.1,71.8,69.1,66.9,96,87,73,30.01,29.90,5,2,9,0.05
2013-7-14,84.0,75.4,70.6,75.2,71.7,68.9,98,89,64,30.18,30.00,5,1,15,0.64
2013-7-15,86.1,76.5,69.4,74.3,71.0,68.8,99,85,58,30.23,30.13,4,1,10,0.00
2013-7-16,91.6,79.5,69.4,74.5,71.2,67.0,98,78,48,30.21,30.10,2,0,6,0.00
2013-7-17,90.5,76.9,68.6,79.3,72.4,67.7,98,87,57,30.14,29.99,2,0,6,0.44
2013-7-18,88.2,76.5,67.8,76.7,71.9,67.5,99,87,59,30.08,29.97,2,0,7,0.00
2013-7-19,88.0,79.5,71.5,76.7,73.1,70.6,99,82,59,30.02,29.88,3,0,6,0.00
2013-7-20,84.9,75.5,70.9,75.9,72.3,69.8,98,90,70,29.94,29.84,8,0,15,0.25
2013-7-21,87.2,75.1,70.4,75.9,72.2,69.8,99,91,64,29.92,29.82,3,0,8,0.12
2013-7-22,85.5,75.5,70.9,74.8,72.0,67.5,99,90,66,29.91,29.74,4,0,8,0.18
2013-7-23,75.3,71.6,69.8,71.2,68.9,68.2,96,92,86,29.78,29.73,1,0,6,0.00
2013-7-24,90.3,78.6,69.9,75.1,70.9,65.4,98,79,53,29.74,29.64,8,0,21,0.02
2013-7-25,84.1,74.4,68.3,72.0,68.3,66.3,96,83,59,29.92,29.73,6,1,11,0.02
2013-7-26,83.8,75.2,67.1,71.9,68.9,65.9,98,82,60,30.00,29.90,2,0,6,0.00
2013-7-27,79.0,73.7,70.8,74.6,71.7,68.6,98,94,82,29.92,29.81,2,0,6,1.12
2013-7-28,84.9,75.7,68.8,74.1,70.6,67.6,99,85,61,29.89,29.82,1,0,6,0.00
2013-7-29,86.5,75.8,67.1,70.3,67.7,63.1,98,78,47,30.06,29.90,4,0,8,0.00
2013-7-30,84.3,74.9,67.4,73.5,68.5,62.9,97,82,59,30.12,30.03,4,0,7,0.00
2013-7-31,80.9,73.8,69.8,74.3,71.3,68.0,98,92,76,30.06,29.89,2,0,4,0.31
2013-8-1,84.5,75.4,71.3,75.2,71.8,68.9,98,89,70,29.89,29.79,4,0,4,0.09
2013-8-2,87.2,77.1,69.1,74.9,70.7,67.4,99,82,56,29.93,29.82,2,0,6,0.00
2013-8-3,87.6,78.3,71.1,75.3,71.2,67.1,98,81,51,29.92,29.84,1,0,6,0.00
2013-8-4,86.7,77.4,68.3,74.3,69.7,67.1,96,79,55,29.92,29.83,6,1,9,0.00
2013-8-5,82.4,75.0,68.8,72.1,69.0,66.9,96,82,63,29.97,29.87,2,0,6,0.00
2013-8-6,75.1,71.8,68.8,71.1,69.5,66.9,98,93,83,29.97,29.87,1,0,4,0.41
2013-8-7,81.6,75.0,70.3,73.4,71.3,69.4,98,89,69,29.99,29.91,2,0,7,0.00
2013-8-8,84.9,77.7,71.8,75.5,73.0,70.9,97,86,68,29.97,29.89,3,0,8,0.01
2013-8-9,88.4,78.1,73.2,76.9,73.3,71.2,98,86,65,29.98,29.90,3,0,9,0.00
2013-8-10,89.7,78.4,72.0,77.5,73.6,69.4,97,86,61,30.02,29.95,5,0,7,0.01
2013-8-11,90.7,77.4,69.3,76.0,72.2,68.7,99,85,56,30.03,29.94,2,0,5,0.01
2013-8-12,90.1,78.7,70.3,76.9,72.6,69.7,99,83,57,29.98,29.84,1,0,2,0.00
2013-8-13,88.2,77.0,70.8,75.5,72.0,67.4,99,86,59,29.87,29.70,11,0,14,0.40
2013-8-14,77.9,72.0,66.0,70.8,66.9,62.1,99,85,59,29.97,29.77,4,1,8,0.00
2013-8-15,73.5,67.0,61.2,62.6,59.6,55.9,93,78,57,30.06,29.97,7,1,13,0.00
2013-8-16,70.6,64.7,60.7,63.9,60.5,58.0,95,86,72,30.08,30.00,4,1,8,0.01
2013-8-17,68.1,64.4,62.1,64.3,62.0,59.7,98,92,83,30.11,30.05,7,2,11,0.17
2013-8-18,79.9,71.0,64.7,71.8,67.9,64.2,99,91,72,30.13,30.04,1,0,4,0.08
2013-8-19,79.2,71.5,67.9,70.9,68.9,67.1,99,92,69,30.10,29.99,3,0,6,0.69
2013-8-20,79.4,72.9,66.6,72.9,69.6,66.3,99,90,73,30.10,30.02,1,0,4,0.00
2013-8-21,81.2,73.6,70.3,75.0,71.9,70.0,99,95,78,30.14,30.02,4,0,4,0.38
2013-8-22,88.2,76.7,68.4,75.3,70.8,68.1,100,84,53,30.07,29.92,1,0,3,0.00
2013-8-23,87.8,73.3,67.3,75.4,69.2,65.2,100,89,53,29.96,29.86,9,0,9,0.06
2013-8-24,79.9,71.1,63.5,69.3,62.6,59.8,98,76,53,30.20,29.97,7,3,11,0.00
2013-8-25,79.6,68.5,58.1,64.5,60.7,57.2,98,78,48,30.30,30.19,5,1,9,0.00
2013-8-26,81.8,69.3,57.0,67.1,61.8,56.4,99,79,51,30.24,30.03,1,0,3,0.00
2013-8-27,88.2,74.4,62.0,71.8,66.9,61.1,98,80,53,30.06,29.90,2,0,4,0.00
2013-8-28,87.4,77.2,67.8,75.6,70.9,67.2,98,82,60,29.93,29.82,2,0,6,0.00
2013-8-29,92.1,80.0,69.8,76.3,71.2,68.1,98,77,47,29.87,29.77,5,1,11,0.00
2013-8-30,84.5,76.9,71.8,72.7,70.2,66.9,95,81,59,29.95,29.83,4,0,7,0.00
2013-8-31,87.8,74.5,68.3,74.6,70.2,66.2,98,88,62,29.87,29.76,11,0,21,0.41
2013-9-1,87.2,74.7,67.3,76.7,70.9,67.0,100,89,64,29.83,29.70,7,0,10,0.15
2013-9-2,86.7,76.8,69.4,76.0,72.6,69.1,100,88,63,29.82,29.71,0,0,0,0.01
2013-9-3,88.4,77.7,69.9,73.7,69.5,64.9,99,78,48,29.87,29.71,5,0,10,0.00
2013-9-4,84.5,73.7,64.8,69.9,66.0,62.8,98,79,53,30.00,29.87,4,0,8,0.00
2013-9-5,87.2,74.4,65.8,71.7,67.7,63.9,99,82,48,30.03,29.94,0,0,6,0.00
2013-9-6,81.6,73.7,62.4,66.5,63.0,59.4,97,71,48,30.09,29.97,5,1,11,0.00
2013-9-7,81.6,68.9,61.3,67.5,64.0,60.2,97,85,57,30.02,29.89,0,0,0,0.00
2013-9-8,84.9,73.6,61.3,71.4,66.4,60.7,99,80,53,29.90,29.83,1,0,1,0.00
2013-9-9,87.2,75.4,65.6,71.3,67.7,63.7,99,80,47,30.04,29.90,3,0,4,0.00
2013-9-10,88.0,76.1,65.5,72.5,68.1,64.7,98,79,51,30.14,30.04,2,0,5,0.00
2013-9-11,88.0,76.4,65.2,71.8,67.4,61.3,98,77,41,30.12,29.98,2,0,4,0.00
2013-9-12,89.3,74.8,67.6,73.1,68.7,65.4,98,83,51,29.98,29.75,4,0,5,0.04
2013-9-13,83.6,73.5,66.0,70.0,62.0,50.3,99,70,44,29.81,29.69,5,2,11,0.00
2013-9-14,75.4,65.5,55.9,60.4,54.3,50.3,89,68,50,30.02,29.81,7,2,11,0.00
2013-9-15,79.2,66.8,56.2,67.1,60.7,54.5,97,82,60,30.14,30.02,3,0,6,0.00
2013-9-16,84.1,72.9,61.8,68.5,63.1,58.2,98,74,43,30.06,29.96,6,1,9,0.00
2013-9-17,73.0,68.1,63.9,61.1,57.5,54.5,81,69,54,30.21,30.06,8,3,12,0.00
2013-9-18,74.2,65.8,58.7,61.1,56.8,53.6,85,73,55,30.21,30.07,5,1,11,0.00
2013-9-19,79.2,68.5,59.9,65.8,61.0,55.7,97,79,55,30.11,29.99,2,0,6,0.00
2013-9-20,85.1,72.7,61.2,68.5,64.1,59.9,98,77,50,30.00,29.82,2,0,7,0.00
2013-9-21,72.7,68.8,64.5,70.9,66.8,63.7,99,93,85,29.83,29.58,10,2,14,2.80
2013-9-22,75.3,66.2,57.0,63.4,58.1,53.0,99,78,47,29.82,29.61,7,2,11,0.01
2013-9-23,73.9,64.2,56.0,61.2,57.4,53.1,96,80,57,29.97,29.82,5,1,7,0.00
2013-9-24,74.9,65.3,57.3,62.9,60.0,56.2,99,84,59,30.00,29.85,2,0,3,0.00
2013-9-25,69.4,63.9,62.0,63.6,62.2,60.9,99,95,75,29.86,29.78,2,0,4,0.43
2013-9-26,74.4,65.2,56.7,62.8,58.0,51.8,99,80,47,29.94,29.80,7,2,12,0.01
2013-9-27,74.0,63.1,52.2,58.7,55.3,51.1,98,78,52,30.10,29.94,5,1,8,0.00
2013-9-28,70.8,60.8,52.3,57.6,54.0,51.2,98,80,55,30.17,30.07,8,1,13,0.00
2013-9-29,71.8,61.2,51.3,59.6,55.1,50.2,97,82,55,30.11,29.96,4,0,7,0.00
2013-9-30,73.7,63.6,54.4,60.8,56.2,52.9,98,79,51,30.02,29.91,2,0,4,0.00
2013-10-1,80.5,65.5,53.3,64.2,57.8,52.8,100,80,43,30.07,29.95,2,0,4,0.00
2013-10-2,81.1,66.8,55.3,65.5,60.3,54.7,99,82,48,30.08,29.98,2,0,2,0.00
2013-10-3,82.2,68.7,57.6,67.4,61.7,57.3,100,81,49,30.05,29.97,2,0,5,0.00
2013-10-4,83.0,69.6,58.1,67.4,63.0,57.5,99,82,50,30.06,29.98,0,0,0,0.00
2013-10-5,84.1,70.8,59.9,69.8,64.2,59.6,100,82,47,30.06,29.93,0,0,0,0.00
2013-10-6,80.7,70.4,62.4,67.7,64.3,61.8,99,83,57,29.96,29.80,0,0,0,0.00
2013-10-7,76.3,70.3,62.6,71.0,65.5,53.0,99,86,64,29.90,29.70,6,1,12,1.29
2013-10-8,68.1,61.9,56.9,55.9,49.2,46.0,81,64,51,30.11,29.90,9,5,15,0.00
2013-10-9,69.6,59.7,50.4,50.4,46.7,44.3,82,63,42,30.14,30.03,10,4,17,0.00
2013-10-10,75.1,60.6,45.8,60.6,52.3,44.4,97,77,48,30.05,29.90,5,1,7,0.00
2013-10-11,79.6,66.3,55.3,62.2,56.6,53.1,94,73,46,29.92,29.82,5,0,6,0.00
2013-10-12,74.2,63.9,54.1,63.7,58.5,52.8,96,84,58,30.00,29.87,1,0,4,0.00
2013-10-13,71.8,66.1,62.7,62.7,61.8,60.3,96,86,70,30.12,30.00,6,1,11,0.01
2013-10-14,70.3,65.0,61.5,61.5,60.0,58.1,93,84,71,30.15,30.05,8,4,13,0.00
2013-10-15,70.8,62.9,56.7,60.1,56.3,52.9,95,80,54,30.11,29.96,6,2,12,0.00
2013-10-16,71.3,61.4,51.7,61.6,57.3,50.9,98,87,65,30.00,29.88,1,0,5,0.00
2013-10-17,68.1,64.4,61.2,65.8,62.1,58.2,98,92,84,29.90,29.78,1,0,8,0.16
2013-10-18,68.6,62.1,55.6,64.7,58.6,54.9,100,89,64,29.94,29.81,4,0,6,0.00
2013-10-19,62.9,59.3,52.0,62.1,57.9,51.5,100,95,83,29.88,29.75,1,0,4,0.01
2013-10-20,63.5,52.8,42.8,51.5,47.1,42.5,100,83,50,30.02,29.84,4,0,6,0.01
2013-10-21,67.4,53.6,40.8,53.9,48.1,40.3,99,83,57,30.08,29.92,1,0,5,0.00
2013-10-22,68.4,60.5,55.9,58.8,56.3,53.5,98,87,64,29.94,29.71,1,0,2,0.00
2013-10-23,65.3,53.9,39.1,58.1,42.9,29.8,99,71,35,29.97,29.65,8,2,14,0.00
2013-10-24,58.4,45.0,31.6,45.3,36.2,30.1,96,74,40,30.11,29.97,2,0,5,0.00
2013-10-25,51.3,43.7,36.0,40.0,32.5,25.2,94,68,36,30.32,30.10,7,2,11,0.00
2013-10-26,56.0,42.3,27.2,37.7,31.6,25.2,94,69,41,30.31,30.01,3,0,7,0.00
2013-10-27,66.4,53.1,38.5,50.1,43.3,36.2,95,71,47,30.07,29.98,2,0,7,0.00
2013-10-28,68.8,56.5,46.2,55.6,51.1,45.1,97,84,58,30.18,30.02,2,0,4,0.00
2013-10-29,71.3,59.0,50.5,56.3,53.2,49.6,99,83,53,30.25,30.15,3,0,8,0.00
2013-10-30,76.1,63.0,51.9,58.7,55.0,50.8,98,78,49,30.20,30.07,3,0,11,0.00
2013-10-31,68.6,62.3,56.0,63.6,57.6,54.0,94,85,74,30.10,29.81,4,0,8,0.00
2013-11-1,68.8,64.2,57.5,65.3,60.9,56.4,97,89,75,29.83,29.59,6,1,9,0.26
2013-11-2,67.6,54.9,46.4,56.2,47.5,38.7,100,79,41,29.90,29.64,6,0,20,0.02
2013-11-3,59.8,48.6,37.3,42.2,37.7,33.9,94,68,38,30.27,29.89,6,1,11,0.00
2013-11-4,56.6,45.9,36.2,37.7,34.6,32.2,89,67,40,30.45,30.28,5,1,9,0.00
2013-11-5,55.4,45.6,33.2,47.7,38.5,29.7,91,76,62,30.49,30.36,7,2,11,0.00
2013-11-6,68.3,57.1,50.2,55.2,50.4,47.7,94,80,58,30.36,30.05,5,1,9,0.00
2013-11-7,69.6,53.5,40.9,60.4,46.3,33.5,99,79,40,30.07,29.87,8,1,18,0.00
2013-11-8,56.6,45.2,33.2,33.9,28.3,21.7,86,55,26,30.25,30.07,4,1,6,0.00
2013-11-9,58.1,44.6,28.8,36.5,30.3,26.2,92,61,32,30.31,30.15,3,0,11,0.00
2013-11-10,69.9,54.4,38.0,41.9,34.3,28.0,90,52,22,30.16,30.04,5,1,9,0.00
2013-11-11,59.3,47.1,34.4,34.6,29.6,23.8,83,54,27,30.27,30.08,3,0,6,0.00
2013-11-12,65.8,43.7,29.5,40.4,30.1,14.0,92,62,27,30.39,29.99,14,4,22,0.00
2013-11-13,45.7,33.2,21.4,21.7,16.2,11.4,81,53,26,30.49,30.38,7,1,10,0.00
2013-11-14,56.5,38.9,21.0,26.4,20.4,16.7,90,54,21,30.42,30.26,4,0,10,0.00
2013-11-15,57.0,43.7,29.5,46.3,33.4,22.8,95,69,43,30.27,30.12,1,0,5,0.06
2013-11-16,63.7,55.0,47.9,54.9,51.6,46.8,98,89,72,30.20,30.10,3,0,6,0.00
2013-11-17,65.5,59.6,54.4,65.2,57.4,52.4,99,93,78,30.13,29.82,3,0,6,0.27
2013-11-18,74.4,63.2,50.7,66.1,48.0,26.8,99,64,22,29.91,29.75,7,2,12,0.01
2013-11-19,54.5,47.0,39.3,32.8,26.8,20.6,70,47,27,30.18,29.91,6,2,13,0.00
2013-11-20,51.0,43.5,35.3,33.6,30.1,27.3,75,60,42,30.38,30.18,10,2,16,0.00
2013-11-21,53.2,48.6,44.1,46.8,39.1,31.7,88,70,61,30.40,30.30,8,3,12,0.01
2013-11-22,62.0,54.9,48.9,57.6,52.9,46.8,97,93,85,30.33,30.04,3,0,7,0.02
2013-11-23,60.1,54.7,41.1,57.7,43.6,20.9,99,71,36,30.12,29.98,7,2,12,0.00
2013-11-24,41.5,34.8,27.5,23.7,10.0,-0.7,55,37,17,30.44,30.12,9,4,14,0.00
2013-11-25,41.3,32.1,19.9,21.5,12.1,4.8,77,46,23,30.50,30.28,2,0,5,0.00
2013-11-26,44.9,37.3,31.6,44.5,34.3,20.0,99,90,50,30.27,29.55,8,4,15,2.41
2013-11-27,45.8,38.3,26.7,45.5,30.7,15.2,99,76,48,30.13,29.47,9,3,20,0.15
2013-11-28,43.8,31.8,20.3,25.1,20.0,16.0,89,64,38,30.41,30.14,2,0,5,0.00
2013-11-29,52.3,37.5,23.0,29.6,23.6,17.6,92,62,27,30.52,30.40,4,1,9,0.00
2013-11-30,45.7,35.8,28.1,25.8,23.7,21.1,81,63,39,30.57,30.32,7,2,14,0.00
2013-12-1,56.3,39.5,27.8,37.7,30.3,23.6,92,71,41,30.31,29.96,3,0,7,0.00
2013-12-2,58.0,44.3,29.7,42.2,35.8,28.2,97,75,43,29.95,29.75,1,0,2,0.00
2013-12-3,59.2,52.7,47.3,52.0,47.9,41.3,96,84,74,29.87,29.78,2,0,7,0.01
2013-12-4,61.5,57.1,53.1,60.6,56.4,52.0,100,97,92,29.99,29.86,3,0,8,0.07
2013-12-5,67.3,63.7,60.4,66.8,63.1,60.1,100,98,89,30.01,29.91,5,2,8,0.18
2013-12-6,75.4,68.8,65.6,66.0,63.8,59.9,98,85,60,29.97,29.87,7,4,15,0.02
2013-12-7,67.9,56.7,47.7,64.7,51.2,40.0,98,82,68,30.30,29.90,9,2,11,0.13
2013-12-8,47.4,39.0,35.0,40.2,35.8,34.0,97,89,74,30.33,30.21,8,3,10,0.05
2013-12-9,44.8,39.9,35.2,44.8,39.5,34.4,100,98,97,30.20,29.98,2,0,4,0.58
2013-12-10,54.1,44.3,29.5,51.5,38.3,22.0,100,82,45,30.25,29.83,8,2,18,0.13
2013-12-11,49.4,36.0,24.4,29.5,25.1,21.1,92,68,34,30.39,30.23,3,0,7,0.00
2013-12-12,46.4,34.9,25.3,26.4,17.9,3.3,90,56,17,30.34,30.22,6,1,12,0.00
2013-12-13,50.7,35.5,21.0,31.6,23.2,16.9,87,64,33,30.32,30.18,3,0,6,0.00
2013-12-14,47.1,40.0,37.3,41.6,36.3,30.7,97,87,72,30.20,29.74,8,2,11,0.86
2013-12-15,52.2,42.2,30.7,43.7,35.4,25.9,99,79,50,30.05,29.68,5,1,9,0.00
2013-12-16,56.5,41.2,26.9,34.8,29.6,24.8,94,67,37,30.11,30.02,3,1,5,0.00
2013-12-17,62.1,48.9,33.5,36.1,31.9,23.6,84,54,32,30.06,29.86,8,2,12,0.00
2013-12-18,50.8,42.5,30.9,26.5,18.0,8.5,72,40,18,30.21,29.98,13,1,20,0.00
2013-12-19,62.6,44.4,27.9,29.3,24.4,18.0,84,51,18,30.26,30.15,4,1,7,0.00
2013-12-20,59.3,49.6,37.5,48.7,40.9,28.5,86,72,56,30.17,30.06,3,0,6,0.00
2013-12-21,69.1,59.2,50.1,62.1,54.6,46.7,93,85,71,30.07,29.91,6,1,12,0.00
2013-12-22,71.5,66.3,62.9,66.8,64.0,61.0,99,93,78,29.97,29.88,9,3,22,1.40
2013-12-23,64.3,57.9,46.4,64.0,55.6,37.9,99,92,71,30.08,29.89,6,1,7,0.99
2013-12-24,47.4,39.3,28.7,38.4,27.0,16.7,85,63,41,30.36,30.08,7,3,17,0.00
2013-12-25,38.9,30.4,21.6,22.4,13.0,6.6,74,50,27,30.48,30.32,5,1,9,0.00
2013-12-26,51.3,36.9,25.3,29.2,23.0,18.5,81,60,32,30.34,30.18,3,0,6,0.00
2013-12-27,50.2,36.6,26.1,27.6,22.6,16.3,84,61,28,30.40,30.28,3,0,6,0.00
2013-12-28,50.1,37.1,24.7,39.1,28.7,21.9,93,74,42,30.34,30.07,4,0,7,0.09
2013-12-29,56.6,46.3,40.6,49.1,43.8,38.9,98,91,74,30.05,29.72,6,1,8,1.27
2013-12-30,53.9,43.9,33.8,44.8,39.6,32.8,98,85,61,30.04,29.88,1,0,3,0.00
2013-12-31,51.0,41.4,32.1,41.4,27.9,16.8,91,63,26,30.30,30.02,5,1,15,0.00
2014-1-1,48.0,37.6,28.4,33.8,28.5,24.6,90,71,46,30.32,30.08,2,0,6,0.00
2014-1-2,46.4,42.0,31.5,45.9,37.8,16.7,99,86,52,30.08,29.58,13,2,24,0.18